• In Deutschland
  • Länderverzeichnis
  • Für 7 Tage
  • Wassertemperatur
  • Satellitenkarten
  • Wetterkarte
  • Widgets
  • user-avatar
    Anmelden

    Stündliche Wetter Hobart

    Heute, 19 November, Sonntag

    Zeit Temperatur Niederschläge Wind Luftdruck Luftfeuchtigkeit
    00:00 +14°C° 0 mm 3 m/S 753 mmHg 94%
    01:00 +13°C° 0 mm 3 m/S 753 mmHg 95%
    02:00 +13°C° 0 mm 3 m/S 753 mmHg 95%
    03:00 +13°C° 0 mm 3 m/S 753 mmHg 95%
    04:00 +13°C° 0 mm 3 m/S 753 mmHg 95%
    05:00 +16°C° 0 mm 2 m/S 754 mmHg 86%
    06:00 +18°C° 0 mm 2 m/S 754 mmHg 77%
    07:00 +20°C° 0 mm 2 m/S 754 mmHg 68%
    08:00 +23°C° 0 mm 2 m/S 754 mmHg 59%
    09:00 +26°C° 0 mm 2 m/S 754 mmHg 50%
    10:00 +29°C° 0 mm 2 m/S 755 mmHg 39%
    11:00 +29°C° 0 mm 2 m/S 755 mmHg 37%
    12:00 +30°C° 0 mm 2 m/S 754 mmHg 36%
    13:00 +30°C° 0 mm 3 m/S 754 mmHg 34%
    14:00 +30°C° 0 mm 3 m/S 754 mmHg 36%
    15:00 +29°C° 0 mm 3 m/S 754 mmHg 37%
    16:00 +29°C° 0 mm 3 m/S 753 mmHg 38%
    17:00 +26°C° 0 mm 3 m/S 754 mmHg 48%
    18:00 +24°C° 0 mm 2 m/S 754 mmHg 58%
    19:00 +21°C° 0 mm 2 m/S 754 mmHg 67%
    20:00 +19°C° 0 mm 2 m/S 754 mmHg 75%
    21:00 +18°C° 0 mm 1 m/S 755 mmHg 83%
    22:00 +16°C° 0 mm 2 m/S 755 mmHg 85%
    23:00 +16°C° 0 mm 2 m/S 755 mmHg 86%

    Morgen, 20 November, Montag

    Zeit Temperatur Niederschläge Wind Luftdruck Luftfeuchtigkeit
    00:00 +15°C° 0 mm 2 m/S 755 mmHg 86%
    01:00 +15°C° 0 mm 2 m/S 755 mmHg 87%
    02:00 +15°C° 0 mm 2 m/S 755 mmHg 87%
    03:00 +15°C° 0 mm 2 m/S 755 mmHg 88%
    04:00 +15°C° 0 mm 2 m/S 755 mmHg 89%
    05:00 +16°C° 0 mm 1 m/S 755 mmHg 81%
    06:00 +19°C° 0 mm 1 m/S 755 mmHg 74%
    07:00 +21°C° 0 mm 1 m/S 756 mmHg 66%
    08:00 +23°C° 0 mm 1 m/S 756 mmHg 56%
    09:00 +26°C° 0 mm 1 m/S 756 mmHg 46%
    10:00 +29°C° 0 mm 2 m/S 756 mmHg 37%
    11:00 +29°C° 0 mm 2 m/S 755 mmHg 33%
    12:00 +30°C° 0 mm 3 m/S 755 mmHg 29%
    13:00 +31°C° 0 mm 3 m/S 755 mmHg 25%
    14:00 +32°C° 0 mm 4 m/S 754 mmHg 26%
    15:00 +30°C° 0 mm 4 m/S 754 mmHg 28%
    16:00 +30°C° 0 mm 4 m/S 754 mmHg 29%
    17:00 +27°C° 0 mm 4 m/S 754 mmHg 39%
    18:00 +25°C° 0 mm 3 m/S 754 mmHg 49%
    19:00 +21°C° 0 mm 3 m/S 754 mmHg 60%
    20:00 +19°C° 0 mm 3 m/S 754 mmHg 66%
    21:00 +18°C° 0 mm 3 m/S 755 mmHg 72%
    22:00 +16°C° 0 mm 2 m/S 755 mmHg 77%
    23:00 +16°C° 0 mm 2 m/S 755 mmHg 79%

    übermorgen, 21 November, Dienstag

    Zeit Temperatur Niederschläge Wind Luftdruck Luftfeuchtigkeit
    00:00 +16°C° 0 mm 3 m/S 754 mmHg 81%
    01:00 +14°C° 0 mm 3 m/S 754 mmHg 83%
    02:00 +14°C° 0 mm 3 m/S 754 mmHg 84%
    03:00 +14°C° 0 mm 3 m/S 754 mmHg 86%
    04:00 +13°C° 0 mm 3 m/S 754 mmHg 87%
    05:00 +16°C° 0 mm 2 m/S 754 mmHg 78%
    06:00 +18°C° 0 mm 2 m/S 754 mmHg 68%
    07:00 +20°C° 0 mm 2 m/S 754 mmHg 59%
    08:00 +24°C° 0 mm 2 m/S 754 mmHg 50%
    09:00 +26°C° 0 mm 2 m/S 754 mmHg 41%
    10:00 +29°C° 0 mm 2 m/S 754 mmHg 32%
    11:00 +30°C° 0 mm 3 m/S 754 mmHg 28%
    12:00 +31°C° 0 mm 3 m/S 753 mmHg 25%
    13:00 +33°C° 0 mm 4 m/S 753 mmHg 22%
    14:00 +32°C° 0 mm 4 m/S 753 mmHg 24%
    15:00 +32°C° 0 mm 4 m/S 752 mmHg 25%
    16:00 +32°C° 0 mm 4 m/S 752 mmHg 27%
    17:00 +28°C° 0 mm 4 m/S 752 mmHg 37%
    18:00 +26°C° 0 mm 3 m/S 752 mmHg 46%
    19:00 +22°C° 0 mm 3 m/S 752 mmHg 56%
    20:00 +20°C° 0 mm 3 m/S 752 mmHg 63%
    21:00 +19°C° 0 mm 2 m/S 753 mmHg 70%
    22:00 +17°C° 0 mm 2 m/S 753 mmHg 76%
    23:00 +16°C° 0 mm 2 m/S 753 mmHg 77%

    22 November, Mittwoch

    Zeit Temperatur Niederschläge Wind Luftdruck Luftfeuchtigkeit
    00:00 +16°C° 0 mm 2 m/S 752 mmHg 79%
    01:00 +16°C° 0 mm 2 m/S 752 mmHg 80%
    02:00 +15°C° 0 mm 2 m/S 752 mmHg 81%
    03:00 +15°C° 0 mm 2 m/S 752 mmHg 82%
    04:00 +15°C° 0 mm 2 m/S 752 mmHg 83%
    05:00 +17°C° 0 mm 2 m/S 752 mmHg 74%
    06:00 +19°C° 0 mm 2 m/S 752 mmHg 65%
    07:00 +21°C° 0 mm 2 m/S 752 mmHg 57%
    08:00 +25°C° 0 mm 2 m/S 752 mmHg 48%
    09:00 +27°C° 0 mm 2 m/S 752 mmHg 40%
    10:00 +30°C° 0 mm 3 m/S 752 mmHg 32%
    11:00 +30°C° 0 mm 3 m/S 751 mmHg 29%
    12:00 +31°C° 0 mm 3 m/S 751 mmHg 26%
    13:00 +33°C° 0 mm 4 m/S 751 mmHg 24%
    14:00 +32°C° 0 mm 4 m/S 750 mmHg 26%
    15:00 +30°C° 0 mm 4 m/S 750 mmHg 28%
    16:00 +30°C° 0 mm 4 m/S 750 mmHg 31%
    17:00 +27°C° 0 mm 4 m/S 750 mmHg 40%
    18:00 +25°C° 0 mm 3 m/S 750 mmHg 50%
    19:00 +22°C° 0 mm 3 m/S 750 mmHg 59%
    20:00 +20°C° 0 mm 3 m/S 750 mmHg 67%
    21:00 +18°C° 0 mm 2 m/S 750 mmHg 75%
    22:00 +16°C° 0 mm 2 m/S 750 mmHg 83%
    23:00 +16°C° 0 mm 2 m/S 750 mmHg 83%

    23 November, Donnerstag

    Zeit Temperatur Niederschläge Wind Luftdruck Luftfeuchtigkeit
    00:00 +15°C° 0 mm 2 m/S 750 mmHg 84%
    01:00 +14°C° 0 mm 3 m/S 749 mmHg 85%
    02:00 +14°C° 0 mm 3 m/S 749 mmHg 86%
    03:00 +14°C° 0 mm 3 m/S 748 mmHg 87%
    04:00 +13°C° 0 mm 3 m/S 748 mmHg 88%
    05:00 +16°C° 0 mm 3 m/S 748 mmHg 79%
    06:00 +18°C° 0 mm 3 m/S 748 mmHg 70%
    07:00 +21°C° 0 mm 2 m/S 748 mmHg 61%
    08:00 +24°C° 0 mm 2 m/S 748 mmHg 51%
    09:00 +27°C° 0 mm 2 m/S 748 mmHg 42%
    10:00 +30°C° 0 mm 2 m/S 748 mmHg 33%
    11:00 +30°C° 0 mm 3 m/S 748 mmHg 32%
    12:00 +31°C° 0 mm 3 m/S 747 mmHg 31%
    13:00 +32°C° 0 mm 4 m/S 747 mmHg 31%
    14:00 +29°C° 0 mm 4 m/S 747 mmHg 38%
    15:00 +26°C° 0 mm 4 m/S 747 mmHg 46%
    16:00 +23°C° 0 mm 4 m/S 746 mmHg 54%
    17:00 +21°C° 0,2 mm 3 m/S 747 mmHg 63%
    18:00 +20°C° 0,2 mm 2 m/S 747 mmHg 71%
    19:00 +18°C° 0,2 mm 2 m/S 747 mmHg 80%
    20:00 +18°C° 0 mm 1 m/S 747 mmHg 84%
    21:00 +16°C° 0 mm 1 m/S 747 mmHg 88%
    22:00 +15°C° 0 mm 1 m/S 747 mmHg 92%
    23:00 +15°C° 0 mm 1 m/S 747 mmHg 91%

    24 November, Freitag

    Zeit Temperatur Niederschläge Wind Luftdruck Luftfeuchtigkeit
    00:00 +15°C° 0 mm 1 m/S 747 mmHg 90%
    01:00 +15°C° 0 mm 1 m/S 746 mmHg 90%
    02:00 +14°C° 0 mm 1 m/S 746 mmHg 91%
    03:00 +14°C° 0 mm 1 m/S 746 mmHg 92%
    04:00 +14°C° 0 mm 1 m/S 746 mmHg 93%
    05:00 +15°C° 0,2 mm 1 m/S 747 mmHg 90%
    06:00 +16°C° 0,2 mm 1 m/S 748 mmHg 87%
    07:00 +18°C° 0,2 mm 1 m/S 748 mmHg 84%
    08:00 +19°C° 0,3 mm 1 m/S 748 mmHg 82%
    09:00 +20°C° 0,3 mm 1 m/S 749 mmHg 79%
    10:00 +21°C° 0,3 mm 1 m/S 749 mmHg 76%
    11:00 +21°C° 0 mm 2 m/S 749 mmHg 71%
    12:00 +23°C° 0 mm 2 m/S 749 mmHg 65%
    13:00 +24°C° 0 mm 3 m/S 749 mmHg 59%
    14:00 +22°C° 0,1 mm 3 m/S 749 mmHg 66%
    15:00 +20°C° 0,1 mm 4 m/S 749 mmHg 72%
    16:00 +19°C° 0,1 mm 4 m/S 749 mmHg 79%
    17:00 +17°C° 0,1 mm 3 m/S 750 mmHg 83%
    18:00 +16°C° 0,1 mm 3 m/S 750 mmHg 88%
    19:00 +14°C° 0,1 mm 3 m/S 751 mmHg 93%
    20:00 +15°C° 0 mm 2 m/S 751 mmHg 94%
    21:00 +14°C° 0 mm 2 m/S 751 mmHg 95%
    22:00 +14°C° 0 mm 2 m/S 751 mmHg 97%
    23:00 +14°C° 0,1 mm 2 m/S 751 mmHg 97%
    Mehr zeigen